Vertical_Velocity
1 -1 2 3 2 3 7 6 4 -1 3 4 6 4 2 5 1 0 7 -3 -2 2 1 1 4 0 2 -0 -1 -0 -1 -0 -0 -2 -1 0 -0 -1 -2 -1 -4 -0 -0 -2 1
-7 -1 1 1 4 2 3 5 13 1 9 1 4 2 1 3 10 6 2 1 2 2 0 0 3 -1 2 -0 -1 -1 -4 1 -2 0 1 -0 -1 2 -1 -3 -1 -2 4 -1 -1
-4 -1 -4 -0 2 2 1 -11 3 2 6 1 3 3 2 2 7 3 -0 2 0 2 2 -3 2 1 -2 -1 -1 -1 -2 -3 -1 -3 -0 1 -0 -2 -0 -4 -1 -2 0 3 -4
-2 -3 -4 4 3 -3 1 7 7 5 7 3 1 2 -2 -1 -7 -1 0 3 1 -1 4 -1 1 -1 0 -1 -2 -3 -2 -2 -2 -2 -2 0 -1 1 0 -4 3 -1 -4 -1 0
1 -0 -1 -1 36 5 20 -0 4 7 8 5 1 1 -1 2 1 3 4 2 2 -1 2 2 1 -3 2 -1 -2 1 -2 -1 -2 -1 -2 -0 -1 2 -5 1 -2 -0 1 -3 -5
-3 -8 -10 -1 -9 -3 6 -1 3 -1 4 6 3 -2 -4 -1 -2 3 -1 2 2 0 2 3 1 1 1 0 0 -0 1 -0 -2 -2 0 -0 -2 3 -5 -4 -1 -3 -1 -2 -2
-4 -2 10 7 -6 2 10 1 2 -1 -2 8 8 4 -3 1 -4 -2 4 0 2 1 -1 -1 -2 1 2 -1 -0 -2 -3 -3 -2 -2 -0 -4 0 0 -2 0 1 1 -1 -2 -1
-3 -4 9 9 9 7 -0 4 -1 0 -0 12 4 0 3 -6 -3 -1 -1 3 3 2 -1 2 -2 1 -2 1 -1 -1 1 -3 -4 -4 -1 -4 17 -11 5 -1 -3 -3 1 0 -3
5 7 1 7 2 3 10 0 -2 -4 5 10 2 1 5 -0 -2 -2 -1 -0 1 -3 2 -2 -0 -1 -3 -0 -1 -1 -5 -1 1 -1 -5 -5 15 -15 -1 8 -9 -2 -2 -3 1
-0 -1 -2 4 3 6 -0 0 -4 -1 12 4 4 -0 -1 1 -2 -2 -1 -1 1 -2 2 -1 -3 -1 -2 -3 2 -1 -3 -2 -12 20 -5 -8 13 -4 -6 2 -4 -4 -3 -1 -1
0 -0 -2 -1 3 1 2 -2 -7 6 -1 6 1 -1 2 -1 -1 -3 -1 -1 -2 1 -0 -3 -0 4 4 5 -1 -3 2 -1 -10 5 -1 -14 6 -6 -7 1 -3 -2 -2 -1 2
-1 2 2 3 1 2 -4 -2 5 5 3 3 5 3 3 -1 -1 0 0 -1 1 1 -3 0 1 -1 -1 -2 -0 0 -1 1 -4 -5 -4 -8 3 -3 -4 -2 -1 -1 -0 0 -0
-3 -1 -2 -2 -4 -4 -1 1 2 2 6 5 4 3 3 1 1 1 -1 -0 -0 -1 2 -2 -1 -0 -4 -1 -2 3 -7 -3 -4 -1 -6 -5 -4 -4 -4 -2 -1 -1 -1 -1 1
1 -1 -1 -3 0 1 1 1 2 1 2 2 1 1 1 -1 -0 -0 -0 -1 -1 -2 -3 -0 -1 -4 -0 -0 -2 1 -4 -4 -4 -4 -6 -5 4 -8 -1 -1 -2 0 1 0 0
-3 -4 -2 -0 -1 -3 -4 0 2 2 -1 1 0 0 -1 1 1 0 -0 -1 -3 -2 1 -2 -2 -1 -2 -2 -1 -4 -4 -5 -2 -1 -2 -1 -3 -1 -2 -1 -3 2 -1 0 1
0 1 -1 -1 1 -0 -0 2 -1 -1 -2 -3 -1 -1 -1 -1 -1 -2 -1 -2 -1 -1 -2 -2 -2 -1 -0 -1 -2 -1 -0 0 -0 -2 -1 -1 -1 -4 -2 -2 -1 -1 1 1 -2
-1 2 2 -0 -1 -1 -0 -0 -0 -1 -1 -0 0 -1 -1 -1 -1 0 0 -0 -1 -2 -0 -0 -2 -2 -2 1 -0 -0 1 -2 -1 -1 -2 -1 -1 2 -2 -2 -2 -1 0 -0 3
-1 -1 0 0 1 0 1 -0 -1 -1 -2 -1 -2 -2 -2 -1 -2 -2 -1 -0 -0 -1 -2 -2 -2 -1 0 -0 -0 -0 -1 -1 -1 -1 -1 -1 -1 -1 -1 -0 -1 0 1 3 0
-1 -0 -0 -1 -1 -0 1 1 -0 -0 -1 -1 -1 0 -0 -1 -0 -1 -1 -1 -2 -1 -1 -1 0 0 -0 -0 -2 -2 -2 -0 -1 -2 -3 -1 -2 -1 -0 -1 -3 0 2 -0 2
-1 -1 1 -0 -1 -1 -2 -2 -1 -1 -0 0 -0 -1 -1 -2 -2 -3 -2 -1 -2 -1 -0 0 -1 -0 -0 -0 -0 -1 1 -1 -2 -2 1 -0 -3 -0 0 -1 2 -2 -0 1 3
0 -0 -1 -0 0 0 -0 -1 -1 -1 -1 -1 -1 -1 0 -0 -1 -1 -1 -1 -1 -1 -1 -0 1 0 -0 -1 0 0 -1 -1 -2 -2 -3 0 3 -2 -0 -0 -5 -1 1 2 4
-0 -0 -0 -1 -1 0 1 0 -1 -0 0 -1 -1 -1 -1 -1 -1 0 0 0 1 1 1 1 1 -1 1 -2 -1 -1 -2 -1 -3 3 -1 -4 10 0 -0 -4 -4 -1 -1 1 1
-0 1 -1 0 -0 -0 1 -1 -0 -0 -1 0 0 1 1 0 -1 -1 -1 -0 -0 -1 -1 0 0 -2 1 1 -0 0 -1 -1 -2 0 6 -1 3 1 -1 -5 2 6 3 1 -2
0 0 0 0 -0 1 -0 0 0 0 0 0 1 1 0 -0 -0 0 0 -0 -1 -1 -2 -2 1 -3 -1 1 -1 1 -1 0 -4 -1 -3 7 -3 1 -9 -1 1 -5 0 -0 0
-2 -2 -0 -0 0 1 0 1 1 1 1 1 1 0 0 1 0 0 2 1 1 0 0 1 4 -1 2 -0 -2 2 5 -2 2 4 -4 8 -2 -2 -4 6 4 -1 0 1 -1
-2 0 -3 1 1 0 1 2 1 -1 -0 -1 1 1 1 1 0 1 -1 1 3 -2 -0 -1 -1 -2 7 -2 -2 1 -1 -2 -0 2 2 -4 13 -5 1 1 0 1 2 -0 -1
-2 -2 1 -1 -0 1 -2 -0 1 3 3 1 0 -0 -0 -1 -0 0 0 -1 -1 1 0 1 -1 -3 9 2 -1 2 2 -1 -0 0 -1 1 -2 3 0 0 -2 2 -1 -1 2
Height
5602 5610 5616 5622 5626 5633 5643 5655 5667 5680 5695 5710 5723 5736 5748 5760 5770 5782 5791 5799 5806 5812 5819 5824 5829 5834 5840 5843 5847 5849 5852 5852 5855 5856 5858 5858 5859 5858 5857 5856 5855 5854 5853 5852 5850
5609 5614 5619 5623 5629 5635 5645 5657 5667 5679 5692 5707 5720 5733 5745 5757 5769 5778 5788 5796 5803 5809 5816 5821 5827 5832 5837 5841 5845 5847 5848 5851 5851 5853 5854 5855 5855 5855 5854 5852 5851 5849 5849 5847 5847
5613 5617 5622 5626 5631 5636 5646 5657 5666 5678 5692 5706 5720 5732 5744 5755 5766 5775 5785 5794 5801 5807 5813 5819 5826 5830 5834 5838 5842 5844 5847 5847 5849 5850 5850 5851 5851 5850 5849 5847 5847 5846 5846 5846 5843
5618 5621 5626 5630 5634 5639 5647 5654 5666 5678 5693 5705 5719 5732 5743 5753 5766 5774 5783 5792 5799 5807 5812 5818 5823 5827 5831 5836 5839 5841 5844 5845 5846 5846 5846 5846 5846 5846 5844 5843 5844 5843 5841 5842 5841
5625 5627 5630 5634 5640 5645 5654 5661 5671 5682 5694 5706 5721 5734 5745 5756 5767 5775 5782 5791 5798 5805 5811 5817 5821 5825 5829 5833 5836 5838 5840 5841 5842 5842 5842 5842 5841 5842 5839 5840 5839 5840 5838 5836 5836
5632 5635 5636 5640 5646 5652 5660 5668 5677 5689 5699 5710 5722 5735 5747 5758 5767 5775 5784 5790 5797 5804 5810 5815 5819 5824 5826 5829 5833 5835 5836 5837 5838 5838 5838 5838 5837 5838 5835 5834 5835 5834 5833 5831 5830
5640 5641 5643 5644 5645 5659 5667 5676 5686 5697 5705 5717 5726 5738 5748 5760 5769 5777 5784 5790 5797 5802 5808 5813 5817 5821 5824 5826 5828 5830 5833 5833 5834 5833 5833 5833 5833 5832 5831 5830 5830 5829 5827 5825 5823
5649 5649 5654 5655 5656 5666 5675 5685 5695 5703 5712 5722 5731 5741 5752 5761 5771 5779 5785 5790 5796 5800 5806 5811 5815 5818 5821 5823 5824 5826 5828 5828 5829 5828 5828 5827 5830 5826 5826 5823 5823 5822 5820 5818 5815
5660 5661 5663 5666 5672 5679 5686 5696 5704 5712 5720 5727 5736 5745 5754 5763 5772 5778 5785 5791 5795 5799 5803 5808 5813 5816 5819 5820 5821 5822 5822 5823 5824 5823 5823 5822 5824 5818 5818 5817 5817 5814 5812 5810 5809
5672 5673 5677 5680 5685 5691 5698 5705 5711 5720 5726 5733 5741 5750 5757 5765 5773 5779 5785 5790 5794 5799 5802 5807 5811 5814 5816 5816 5817 5817 5817 5817 5817 5821 5818 5815 5816 5815 5810 5810 5808 5807 5804 5803 5802
5685 5686 5689 5693 5697 5703 5709 5715 5721 5728 5732 5739 5746 5753 5759 5766 5773 5779 5785 5789 5794 5798 5801 5805 5808 5808 5809 5811 5811 5812 5812 5813 5812 5812 5811 5810 5808 5807 5805 5802 5801 5799 5798 5797 5796
5698 5699 5701 5704 5709 5714 5719 5724 5730 5735 5739 5744 5750 5755 5762 5768 5774 5779 5785 5789 5792 5795 5798 5803 5804 5806 5808 5807 5808 5808 5808 5808 5808 5807 5804 5804 5802 5799 5798 5796 5794 5792 5791 5790 5789
5710 5712 5714 5717 5720 5724 5726 5729 5734 5738 5744 5748 5752 5758 5764 5770 5774 5779 5783 5787 5790 5793 5797 5800 5802 5803 5804 5804 5804 5805 5805 5804 5804 5802 5799 5797 5796 5793 5791 5789 5787 5786 5785 5785 5785
5720 5722 5724 5726 5730 5731 5734 5737 5741 5745 5749 5754 5758 5763 5767 5770 5775 5778 5782 5787 5789 5792 5795 5798 5799 5800 5800 5801 5801 5801 5800 5799 5797 5795 5794 5792 5791 5786 5785 5783 5782 5781 5781 5781 5781
5730 5730 5732 5733 5734 5738 5741 5744 5746 5749 5753 5758 5761 5764 5768 5773 5776 5779 5782 5785 5788 5791 5794 5796 5796 5796 5797 5797 5796 5796 5794 5793 5791 5789 5788 5787 5786 5784 5782 5780 5778 5778 5777 5779 5780
5736 5737 5738 5740 5741 5743 5745 5748 5751 5756 5757 5760 5763 5766 5770 5773 5777 5780 5782 5784 5786 5789 5790 5791 5792 5792 5791 5791 5790 5789 5787 5787 5787 5786 5786 5784 5784 5782 5780 5777 5775 5775 5776 5778 5780
5742 5741 5742 5743 5745 5747 5749 5752 5755 5757 5761 5764 5765 5768 5771 5773 5776 5777 5779 5781 5784 5785 5786 5786 5787 5787 5787 5786 5785 5784 5784 5785 5785 5784 5783 5781 5780 5779 5778 5777 5776 5776 5777 5778 5779
5749 5748 5747 5747 5747 5749 5751 5754 5756 5759 5761 5763 5766 5768 5770 5772 5774 5775 5777 5779 5780 5781 5781 5782 5784 5783 5782 5783 5783 5783 5783 5783 5782 5781 5780 5777 5775 5775 5775 5776 5775 5776 5777 5777 5776
5754 5752 5752 5751 5751 5751 5753 5754 5756 5758 5760 5763 5765 5766 5768 5770 5772 5773 5775 5776 5777 5778 5779 5779 5780 5780 5780 5780 5781 5780 5780 5780 5779 5778 5777 5776 5774 5773 5773 5774 5774 5775 5774 5773 5772
5759 5757 5756 5755 5754 5755 5755 5756 5757 5758 5760 5762 5763 5765 5767 5768 5770 5771 5772 5773 5774 5775 5776 5778 5778 5778 5778 5778 5778 5778 5778 5778 5776 5776 5775 5773 5772 5772 5772 5772 5771 5770 5770 5769 5767
5764 5762 5760 5759 5758 5757 5757 5758 5758 5759 5761 5763 5764 5765 5766 5767 5768 5769 5771 5773 5773 5774 5774 5775 5776 5777 5776 5776 5776 5776 5775 5775 5774 5773 5771 5771 5771 5769 5768 5767 5766 5766 5765 5764 5762
5766 5765 5763 5762 5762 5760 5760 5759 5760 5760 5761 5762 5764 5765 5766 5767 5768 5769 5770 5771 5771 5772 5772 5773 5773 5773 5774 5773 5773 5773 5772 5771 5770 5770 5768 5766 5769 5765 5763 5761 5760 5761 5760 5758 5754
5766 5765 5765 5763 5763 5763 5762 5762 5762 5762 5762 5763 5764 5765 5766 5767 5768 5768 5769 5769 5770 5770 5771 5771 5771 5770 5771 5771 5770 5769 5767 5766 5764 5764 5764 5760 5763 5759 5756 5752 5754 5754 5752 5749 5746
5765 5763 5763 5763 5762 5762 5762 5762 5762 5762 5763 5763 5763 5764 5764 5765 5765 5766 5766 5767 5767 5767 5767 5767 5767 5766 5767 5766 5765 5764 5762 5760 5758 5759 5757 5758 5755 5752 5747 5746 5746 5744 5742 5739 5736
5761 5760 5759 5759 5759 5759 5760 5760 5760 5761 5761 5761 5761 5762 5762 5762 5762 5763 5763 5763 5763 5762 5762 5761 5761 5760 5759 5758 5756 5757 5756 5753 5753 5752 5747 5751 5745 5744 5740 5740 5739 5735 5733 5731 5728
5754 5755 5755 5754 5754 5755 5755 5756 5756 5756 5757 5757 5757 5757 5757 5757 5758 5757 5757 5757 5757 5756 5756 5755 5754 5753 5754 5751 5748 5748 5748 5745 5744 5743 5741 5739 5740 5733 5733 5732 5729 5726 5724 5721 5718
5749 5749 5749 5749 5749 5750 5750 5750 5750 5751 5751 5751 5751 5751 5751 5751 5750 5750 5750 5750 5750 5750 5748 5748 5746 5744 5747 5742 5739 5741 5739 5736 5734 5732 5730 5728 5727 5726 5725 5724 5720 5717 5715 5710 5707